Radiation Dose at Monitoring Post of Fukushima Daini Nuclear Power Station
Date,Time,MP-1(microSv/h),MP-2(microSv/h),MP-3(microSv/h),MP-4(microSv/h),MP-5(microSv/h),MP-6(microSv/h),MP-7(microSv/h),Wind Direction,Wind Velocity(m/s),Rain
2022/06/07,00:00,0.146,0.137,0.208,0.206,0.211,0.116,0.077,north-northwest,5.0,Yes
2022/06/07,00:10,0.146,0.135,0.209,0.204,0.212,0.117,0.078,north,5.6,Yes
2022/06/07,00:20,0.147,0.137,0.209,0.205,0.212,0.117,0.078,north-northwest,4.4,Yes
2022/06/07,00:30,0.145,0.138,0.209,0.205,0.212,0.118,0.079,north-northeast,6.1,Yes
2022/06/07,00:40,0.146,0.138,0.210,0.205,0.213,0.118,0.081,northeast,6.6,Yes
2022/06/07,00:50,0.146,0.140,0.210,0.206,0.214,0.120,0.081,northeast,6.9,Yes
2022/06/07,01:00,0.147,0.139,0.211,0.205,0.215,0.121,0.083,northeast,10.3,Yes
2022/06/07,01:10,0.146,0.141,0.211,0.206,0.216,0.122,0.083,east-northeast,9.8,Yes
2022/06/07,01:20,0.144,0.140,0.209,0.205,0.214,0.121,0.082,northeast,9.5,Yes
2022/06/07,01:30,0.144,0.140,0.209,0.205,0.213,0.121,0.082,northeast,6.6,Yes
2022/06/07,01:40,0.144,0.140,0.208,0.206,0.216,0.122,0.083,northeast,8.3,Yes
2022/06/07,01:50,0.145,0.141,0.211,0.206,0.214,0.123,0.082,northeast,10.3,Yes
2022/06/07,02:00,0.145,0.141,0.209,0.206,0.216,0.122,0.083,northeast,8.6,Yes
2022/06/07,02:10,0.143,0.140,0.208,0.206,0.214,0.121,0.083,northeast,10.7,Yes
2022/06/07,02:20,0.144,0.140,0.207,0.206,0.213,0.121,0.083,northeast,10.1,Yes
2022/06/07,02:30,0.142,0.141,0.206,0.204,0.214,0.120,0.082,north-northeast,9.5,Yes
2022/06/07,02:40,0.143,0.140,0.206,0.202,0.213,0.120,0.084,north,7.9,Yes
2022/06/07,02:50,0.142,0.141,0.205,0.205,0.214,0.121,0.084,north,7.7,Yes
2022/06/07,03:00,0.142,0.140,0.206,0.203,0.212,0.121,0.084,-,CALM,Yes
2022/06/07,03:10,0.142,0.140,0.204,0.204,0.213,0.119,0.083,-,CALM,Yes
2022/06/07,03:20,0.140,0.138,0.203,0.202,0.211,0.119,0.084,-,CALM,Yes
2022/06/07,03:30,0.138,0.138,0.201,0.203,0.209,0.119,0.083,-,CALM,Yes
2022/06/07,03:40,0.139,0.136,0.201,0.202,0.211,0.119,0.084,-,CALM,Yes
2022/06/07,03:50,0.139,0.138,0.201,0.202,0.210,0.118,0.084,-,CALM,Yes
2022/06/07,04:00,0.139,0.138,0.203,0.202,0.211,0.118,0.084,north-northwest,9.8,Yes
2022/06/07,04:10,0.139,0.136,0.201,0.201,0.209,0.117,0.083,north-northwest,10.3,Yes
2022/06/07,04:20,0.137,0.136,0.200,0.200,0.211,0.117,0.082,north-northwest,9.0,Yes
2022/06/07,04:30,0.139,0.136,0.200,0.202,0.209,0.116,0.084,north-northwest,8.1,Yes
2022/06/07,04:40,0.136,0.137,0.202,0.201,0.209,0.116,0.083,north-northwest,7.7,Yes
2022/06/07,04:50,0.137,0.137,0.201,0.202,0.209,0.116,0.082,north-northwest,9.0,Yes
2022/06/07,05:00,0.137,0.137,0.201,0.201,0.209,0.116,0.082,northwest,8.1,Yes
2022/06/07,05:10,0.139,0.138,0.201,0.201,0.210,0.116,0.081,north-northwest,9.0,Yes
2022/06/07,05:20,0.139,0.137,0.201,0.201,0.208,0.115,0.082,northwest,9.2,Yes
2022/06/07,05:30,0.138,0.135,0.200,0.199,0.206,0.116,0.081,-,CALM,Yes
2022/06/07,05:40,0.138,0.136,0.199,0.201,0.207,0.115,0.082,northwest,11.7,Yes
2022/06/07,05:50,0.137,0.135,0.199,0.201,0.207,0.116,0.082,northwest,10.3,Yes
2022/06/07,06:00,0.139,0.136,0.201,0.201,0.208,0.116,0.082,northwest,10.4,Yes
2022/06/07,06:10,0.140,0.137,0.201,0.202,0.208,0.116,0.083,north-northwest,11.5,Yes
2022/06/07,06:20,0.141,0.137,0.202,0.201,0.209,0.116,0.082,northwest,11.7,Yes
2022/06/07,06:30,0.142,0.137,0.202,0.202,0.208,0.115,0.081,northwest,11.8,Yes
2022/06/07,06:40,0.143,0.137,0.203,0.203,0.208,0.114,0.081,northwest,11.5,Yes
2022/06/07,06:50,0.143,0.137,0.203,0.203,0.211,0.115,0.080,northwest,10.0,Yes
2022/06/07,07:00,0.143,0.137,0.202,0.204,0.209,0.116,0.080,northwest,11.1,Yes
2022/06/07,07:10,0.143,0.136,0.203,0.202,0.209,0.115,0.081,north-northwest,8.8,Yes
2022/06/07,07:20,0.143,0.137,0.203,0.201,0.211,0.116,0.081,north,10.0,Yes
2022/06/07,07:30,0.143,0.138,0.203,0.203,0.210,0.116,0.081,north-northwest,9.2,Yes
2022/06/07,07:40,0.142,0.137,0.204,0.203,0.211,0.116,0.081,north,6.8,Yes
2022/06/07,07:50,0.142,0.137,0.204,0.204,0.211,0.117,0.080,north,10.6,Yes
2022/06/07,08:00,0.143,0.137,0.204,0.203,0.212,0.116,0.081,north-northwest,10.6,Yes
2022/06/07,08:10,0.143,0.137,0.205,0.204,0.210,0.116,0.080,north-northwest,8.7,Yes
2022/06/07,08:20,0.143,0.136,0.205,0.203,0.210,0.116,0.079,north-northwest,9.5,Yes
2022/06/07,08:30,0.143,0.135,0.205,0.203,0.210,0.114,0.078,north-northwest,9.6,Yes
2022/06/07,08:40,0.143,0.135,0.204,0.203,0.209,0.115,0.077,north-northwest,9.0,Yes
2022/06/07,08:50,0.143,0.134,0.204,0.204,0.210,0.115,0.077,north,10.4,Yes
2022/06/07,09:00,0.142,0.134,0.204,0.202,0.208,0.112,0.076,north-northwest,9.8,Yes
2022/06/07,09:10,0.142,0.134,0.203,0.202,0.209,0.113,0.075,north-northwest,7.8,Yes
2022/06/07,09:20,0.141,0.133,0.204,0.202,0.207,0.112,0.075,north-northwest,8.1,Yes
2022/06/07,09:30,0.142,0.132,0.203,0.200,0.208,0.113,0.075,north-northwest,9.2,Yes
2022/06/07,09:40,0.142,0.133,0.203,0.203,0.207,0.112,0.075,north-northwest,9.5,Yes
2022/06/07,09:50,0.142,0.132,0.204,0.200,0.207,0.112,0.075,north-northwest,10.6,Yes
2022/06/07,10:00,0.141,0.132,0.203,0.202,0.207,0.111,0.074,north-northwest,9.2,Yes
2022/06/07,10:10,0.141,0.132,0.203,0.202,0.206,0.112,0.073,north,10.1,Yes
2022/06/07,10:20,0.141,0.132,0.204,0.201,0.208,0.111,0.074,north-northwest,10.3,Yes
2022/06/07,10:30,0.143,0.132,0.203,0.202,0.206,0.112,0.073,north,10.1,Yes
2022/06/07,10:40,0.141,0.132,0.204,0.200,0.208,0.111,0.074,north-northwest,11.2,Yes
2022/06/07,10:50,0.142,0.132,0.204,0.203,0.207,0.112,0.074,north-northwest,9.0,Yes
2022/06/07,11:00,0.142,0.132,0.203,0.201,0.208,0.112,0.074,north-northwest,8.7,Yes
2022/06/07,11:10,0.143,0.131,0.205,0.201,0.208,0.112,0.075,north-northwest,7.2,Yes
2022/06/07,11:20,0.143,0.133,0.204,0.201,0.207,0.113,0.074,north,10.6,Yes
2022/06/07,11:30,0.143,0.133,0.204,0.202,0.207,0.112,0.074,north-northwest,8.6,Yes
2022/06/07,11:40,0.143,0.133,0.205,0.201,0.206,0.113,0.074,north,9.6,Yes
2022/06/07,11:50,0.143,0.133,0.205,0.201,0.210,0.112,0.074,north-northwest,9.2,Yes
2022/06/07,12:00,0.142,0.132,0.206,0.202,0.208,0.113,0.075,north-northwest,9.2,Yes
2022/06/07,12:10,0.144,0.133,0.205,0.201,0.209,0.113,0.075,north-northwest,8.1,Yes
2022/06/07,12:20,0.143,0.134,0.205,0.201,0.209,0.113,0.075,north-northwest,7.3,Yes
2022/06/07,12:30,0.144,0.133,0.206,0.201,0.209,0.114,0.075,north-northwest,7.9,Yes
2022/06/07,12:40,0.144,0.134,0.205,0.201,0.208,0.113,0.075,north-northwest,7.7,Yes
2022/06/07,12:50,0.143,0.132,0.207,0.202,0.210,0.114,0.075,north-northwest,8.4,Yes
2022/06/07,13:00,0.144,0.134,0.205,0.201,0.208,0.113,0.075,north-northwest,7.6,Yes
2022/06/07,13:10,0.143,0.133,0.206,0.202,0.208,0.113,0.075,north-northwest,7.9,Yes
2022/06/07,13:20,0.144,0.132,0.205,0.201,0.209,0.113,0.074,north-northwest,7.0,Yes
2022/06/07,13:30,0.143,0.134,0.204,0.202,0.209,0.114,0.074,north,10.6,Yes
2022/06/07,13:40,0.143,0.132,0.206,0.201,0.209,0.114,0.074,north-northwest,8.7,Yes
2022/06/07,13:50,0.143,0.133,0.205,0.202,0.207,0.114,0.074,north-northwest,10.0,Yes
2022/06/07,14:00,0.142,0.133,0.205,0.201,0.209,0.113,0.074,north,6.9,Yes
2022/06/07,14:10,0.144,0.134,0.205,0.201,0.207,0.114,0.075,north-northwest,7.9,Yes
2022/06/07,14:20,0.143,0.133,0.206,0.203,0.210,0.114,0.075,north-northwest,8.5,Yes
2022/06/07,14:30,0.143,0.133,0.207,0.200,0.208,0.112,0.074,north-northwest,7.6,Yes
2022/06/07,14:40,0.143,0.134,0.205,0.203,0.209,0.113,0.074,north,9.0,Yes
2022/06/07,14:50,0.143,0.133,0.206,0.200,0.208,0.113,0.074,north-northwest,7.5,Yes
2022/06/07,15:00,0.144,0.133,0.205,0.203,0.208,0.114,0.075,north,7.7,Yes
2022/06/07,15:10,0.144,0.133,0.206,0.202,0.208,0.113,0.074,north,7.3,Yes
2022/06/07,15:20,0.143,0.133,0.206,0.203,0.209,0.114,0.074,north-northwest,7.8,Yes
2022/06/07,15:30,0.143,0.134,0.205,0.202,0.209,0.113,0.075,north,8.2,Yes
2022/06/07,15:40,0.144,0.132,0.206,0.202,0.207,0.113,0.074,north-northwest,6.6,Yes
2022/06/07,15:50,0.144,0.133,0.206,0.203,0.209,0.113,0.074,north-northwest,6.1,Yes
2022/06/07,16:00,0.143,0.133,0.207,0.201,0.208,0.114,0.074,north-northwest,6.4,Yes
2022/06/07,16:10,0.144,0.132,0.207,0.202,0.209,0.114,0.074,north-northwest,5.7,Yes
2022/06/07,16:20,0.143,0.133,0.206,0.202,0.208,0.113,0.074,north-northwest,6.6,Yes
2022/06/07,16:30,0.144,0.133,0.206,0.201,0.209,0.114,0.074,north-northwest,7.6,Yes
2022/06/07,16:40,0.144,0.133,0.206,0.203,0.208,0.113,0.075,north,7.3,Yes
2022/06/07,16:50,0.143,0.133,0.205,0.200,0.208,0.113,0.074,north,8.4,Yes
2022/06/07,17:00,0.144,0.133,0.206,0.201,0.208,0.113,0.074,north-northwest,7.5,Yes
2022/06/07,17:10,0.143,0.133,0.205,0.201,0.208,0.113,0.075,north-northwest,7.3,Yes
2022/06/07,17:20,0.143,0.133,0.207,0.201,0.209,0.113,0.073,north,7.1,Yes
2022/06/07,17:30,0.143,0.133,0.205,0.201,0.207,0.113,0.074,north,6.6,Yes
2022/06/07,17:40,0.143,0.133,0.204,0.200,0.210,0.113,0.075,north,8.1,Yes
2022/06/07,17:50,0.143,0.133,0.206,0.200,0.209,0.112,0.075,north,7.5,Yes
2022/06/07,18:00,0.142,0.133,0.205,0.201,0.209,0.114,0.074,north,7.0,Yes
2022/06/07,18:10,0.144,0.134,0.206,0.200,0.210,0.112,0.074,north-northwest,6.8,Yes
2022/06/07,18:20,0.143,0.133,0.206,0.201,0.208,0.113,0.074,north-northwest,7.0,Yes
2022/06/07,18:30,0.143,0.133,0.206,0.200,0.209,0.113,0.074,north-northwest,6.3,Yes
2022/06/07,18:40,0.143,0.133,0.206,0.202,0.208,0.114,0.075,north-northwest,5.8,Yes
2022/06/07,18:50,0.142,0.133,0.206,0.201,0.208,0.114,0.074,north-northwest,6.9,Yes
2022/06/07,19:00,0.143,0.133,0.206,0.200,0.209,0.113,0.074,north-northwest,6.9,Yes
2022/06/07,19:10,0.143,0.132,0.206,0.201,0.208,0.113,0.074,north,5.8,Yes
2022/06/07,19:20,0.142,0.132,0.205,0.201,0.210,0.113,0.075,north-northwest,5.6,Yes
2022/06/07,19:30,0.143,0.133,0.205,0.202,0.208,0.113,0.074,north-northwest,5.0,Yes
2022/06/07,19:40,0.143,0.132,0.206,0.202,0.208,0.113,0.074,north-northwest,5.0,Yes
2022/06/07,19:50,0.142,0.133,0.204,0.201,0.208,0.113,0.074,north-northwest,4.9,Yes
2022/06/07,20:00,0.142,0.133,0.205,0.202,0.207,0.114,0.075,north,4.8,Yes
2022/06/07,20:10,0.142,0.133,0.206,0.202,0.209,0.113,0.074,north,4.9,Yes
2022/06/07,20:20,0.143,0.134,0.206,0.201,0.208,0.114,0.074,north-northwest,4.8,Yes
2022/06/07,20:30,0.143,0.133,0.206,0.202,0.209,0.112,0.073,north-northwest,5.2,Yes
2022/06/07,20:40,0.142,0.132,0.206,0.201,0.208,0.113,0.074,north-northwest,4.9,Yes
2022/06/07,20:50,0.143,0.134,0.207,0.203,0.208,0.113,0.073,north-northwest,5.1,Yes
2022/06/07,21:00,0.143,0.132,0.206,0.202,0.208,0.113,0.074,north-northwest,4.7,Yes
2022/06/07,21:10,0.143,0.133,0.205,0.201,0.208,0.113,0.074,north-northwest,5.1,Yes
2022/06/07,21:20,0.143,0.132,0.206,0.202,0.209,0.113,0.073,north-northwest,5.4,No
2022/06/07,21:30,0.142,0.132,0.206,0.202,0.208,0.114,0.073,north,5.5,No
2022/06/07,21:40,0.142,0.132,0.206,0.202,0.209,0.113,0.073,north,5.5,No
2022/06/07,21:50,0.142,0.133,0.206,0.201,0.208,0.112,0.073,north,5.2,No
2022/06/07,22:00,0.143,0.132,0.207,0.202,0.209,0.113,0.073,north,6.2,No
2022/06/07,22:10,0.142,0.133,0.206,0.202,0.209,0.113,0.073,north,5.8,No
2022/06/07,22:20,0.143,0.132,0.207,0.202,0.209,0.113,0.074,north-northwest,5.7,No
2022/06/07,22:30,0.143,0.132,0.206,0.203,0.208,0.113,0.073,north-northwest,4.7,No
2022/06/07,22:40,0.142,0.132,0.206,0.202,0.207,0.113,0.073,north-northwest,4.4,No
2022/06/07,22:50,0.145,0.132,0.207,0.203,0.210,0.114,0.073,north,5.6,No
2022/06/07,23:00,0.143,0.133,0.206,0.203,0.208,0.112,0.074,north,7.2,No
2022/06/07,23:10,0.144,0.132,0.207,0.202,0.209,0.114,0.074,north,5.9,No
2022/06/07,23:20,0.144,0.133,0.207,0.202,0.208,0.114,0.074,north,5.3,No
2022/06/07,23:30,0.143,0.132,0.205,0.202,0.209,0.113,0.074,north,5.7,No
2022/06/07,23:40,0.142,0.132,0.208,0.203,0.209,0.114,0.074,north,6.4,No
2022/06/07,23:50,0.144,0.133,0.206,0.202,0.208,0.114,0.074,north,6.1,No
